H1 CPF 2 NER 2024 1 26 9 026 01 glonass143 H2 2007501 9143 46805 2024 1 26 0 0 0 2024 1 29 23 45 0 900 1 1 0 0 0 1 H9 10 0 60335 0.00000 0 10970660.707 426681.637 -23018775.320 10 0 60335 900.00000 0 10728394.874 3251295.299 -22908290.648 10 0 60335 1800.00000 0 10692823.897 6044907.631 -22352726.056 10 0 60335 2700.00000 0 10855905.702 8738564.000 -21362929.357 10 0 60335 3600.00000 0 11197744.961 11266672.467 -19958177.800 10 0 60335 4500.00000 0 11687501.222 13569493.799 -18165800.721 10 0 60335 5400.00000 0 12284774.160 15595391.698 -16020646.603 10 0 60335 6300.00000 0 12941407.243 17302750.560 -13564404.808 10 0 60335 7200.00000 0 13603633.556 18661481.893 -10844795.047 10 0 60335 8100.00000 0 14214473.127 19654057.673 -7914640.179 10 0 60335 9000.00000 0 14716280.482 20276028.608 -4830840.239 10 0 60335 9900.00000 0 15053334.758 20536006.780 -1653267.644 10 0 60335 10800.00000 0 15174362.882 20455114.536 1556394.941 10 0 60335 11700.00000 0 15034889.070 20065923.807 4735851.421 10 0 60335 12600.00000 0 14599311.203 19410931.404 7823400.329 10 0 60335 13500.00000 0 13842616.077 18540635.131 10759130.627 10 0 60335 14400.00000 0 12751660.729 17511292.292 13486081.967 10 0 60335 15300.00000 0 11325965.235 16382455.245 15951346.978 10 0 60335 16200.00000 0 9577982.849 15214387.831 18107094.384 10 0 60335 17100.00000 0 7532835.140 14065471.278 19911493.483 10 0 60335 18000.00000 0 5227522.116 12989708.362 21329522.462 10 0 60335 18900.00000 0 2709639.067 12034430.334 22333645.378 10 0 60335 19800.00000 0 35652.303 11238302.423 22904345.150 10 0 60335 20700.00000 0 -2731195.806 10629711.239 23030502.584 10 0 60335 21600.00000 0 -5523266.711 10225601.336 22709614.280 10 0 60335 22500.00000 0 -8271092.969 10030809.532 21947845.180 10 0 60335 23400.00000 0 -10906027.428 10037924.830 20759914.444 10 0 60335 24300.00000 0 -13362865.332 10227679.872 19168816.392 10 0 60335 25200.00000 0 -15582331.203 10569857.665 17205381.228 10 0 60335 26100.00000 0 -17513327.664 11024675.702 14907683.294 10 0 60335 27000.00000 0 -19114852.961 11544589.448 12320307.562 10 0 60335 27900.00000 0 -20357507.501 12076439.339 9493487.881 10 0 60335 28800.00000 0 -21224526.598 12563850.721 6482133.262 10 0 60335 29700.00000 0 -21712296.394 12949785.124 3344760.852 10 0 60335 30600.00000 0 -21830331.503 13179134.610 142356.367 10 0 60335 31500.00000 0 -21600715.608 13201248.726 -3062815.496 10 0 60335 32400.00000 0 -21057029.011 12972286.264 -6208426.981 10 0 60335 33300.00000 0 -20242808.821 12457291.270 -9233305.175 10 0 60335 34200.00000 0 -19209607.380 11631904.328 -12078627.380 10 0 60335 35100.00000 0 -18014731.511 10483635.666 -14689069.976 10 0 60335 36000.00000 0 -16718758.615 9012645.158 -17013887.862 10 0 60335 36900.00000 0 -15382934.961 7231995.260 -19007903.055 10 0 60335 37800.00000 0 -14066566.242 5167365.259 -20632383.116 10 0 60335 38700.00000 0 -12824510.483 2856237.853 -21855792.441 10 0 60335 39600.00000 0 -11704878.793 346591.365 -22654402.097 10 0 60335 40500.00000 0 -10747040.318 -2304848.519 -23012746.865 10 0 60335 41400.00000 0 -9980014.720 -5034725.234 -22923921.081 10 0 60335 42300.00000 0 -9421318.968 -7775448.487 -22389708.111 10 0 60335 43200.00000 0 -9076316.027 -10457772.959 -21420541.334 10 0 60335 44100.00000 0 -8938091.851 -13013451.980 -20035297.737 10 0 60335 45000.00000 0 -8987864.969 -15377856.485 -18260928.288 10 0 60335 45900.00000 0 -9195910.529 -17492451.057 -16131932.308 10 0 60335 46800.00000 0 -9522959.186 -19307024.797 -13689685.953 10 0 60335 47700.00000 0 -9922011.264 -20781584.869 -10981637.751 10 0 60335 48600.00000 0 -10340489.192 -21887834.626 -8060386.646 10 0 60335 49500.00000 0 -10722636.978 -22610175.498 -4982660.380 10 0 60335 50400.00000 0 -11012065.072 -22946191.642 -1808214.005 10 0 60335 51300.00000 0 -11154332.816 -22906597.994 1401329.986 10 0 60335 52200.00000 0 -11099459.082 -22514654.799 4583677.343 10 0 60335 53100.00000 0 -10804254.687 -21805074.020 7677070.140 10 0 60335 54000.00000 0 -10234377.728 -20822464.243 10621483.688 10 0 60335 54900.00000 0 -9366024.595 -19619380.004 13359789.053 10 0 60335 55800.00000 0 -8187184.803 -18254057.837 15838858.616 10 0 60335 56700.00000 0 -6698406.033 -16787934.326 18010593.465 10 0 60335 57600.00000 0 -4913036.296 -15283050.289 19832853.047 10 0 60335 58500.00000 0 -2856931.958 -13799449.782 21270269.450 10 0 60335 59400.00000 0 -567642.539 -12392682.581 22294931.041 10 0 60335 60300.00000 0 1906895.062 -11111514.227 22886922.688 10 0 60335 61200.00000 0 4510099.946 -9995939.023 23034712.434 10 0 60335 62100.00000 0 7178857.081 -9075578.553 22735377.348 10 0 60335 63000.00000 0 9845907.359 -8368532.264 21994664.154 10 0 60335 63900.00000 0 12442419.759 -7880727.855 20826883.180 10 0 60335 64800.00000 0 14900639.806 -7605798.366 19254637.226 10 0 60335 65700.00000 0 17156505.146 -7525490.941 17308389.883 10 0 60335 66600.00000 0 19152119.948 -7610590.010 15025880.943 10 0 60335 67500.00000 0 20837985.499 -7822315.979 12451399.445 10 0 60335 68400.00000 0 22174894.096 -8114140.461 9634927.743 10 0 60335 69300.00000 0 23135407.113 -8433941.309 6631172.773 10 0 60335 70200.00000 0 23704855.348 -8726406.124 3498503.050 10 0 60335 71100.00000 0 23881819.666 -8935582.158 297812.087 10 0 60335 72000.00000 0 23678071.757 -9007464.010 -2908669.309 10 0 60335 72900.00000 0 23117977.673 -8892508.704 -6058588.239 10 0 60335 73800.00000 0 22237389.520 -8547970.655 -9090688.074 10 0 60335 74700.00000 0 21082072.399 -7939956.534 -11946005.459 10 0 60335 75600.00000 0 19705733.403 -7045111.974 -14569021.963 10 0 60335 76500.00000 0 18167736.221 -5851867.634 -16908747.385 10 0 60335 77400.00000 0 16530598.133 -4361190.913 -18919713.225 10 0 60335 78300.00000 0 14857375.116 -2586810.588 -20562856.853 10 0 60335 79200.00000 0 13209045.229 -554903.893 -21806279.308 10 0 60335 80100.00000 0 11642000.192 1696741.712 -22625862.275 10 0 60335 81000.00000 0 10205750.181 4120057.854 -23005732.705 10 0 60335 81900.00000 0 8940937.529 6658460.858 -22938566.621 10 0 60335 82800.00000 0 7877741.850 9248980.675 -22425726.679 10 0 60335 83700.00000 0 7034742.420 11824665.102 -21477231.313 10 0 60335 84600.00000 0 6418284.375 14317159.827 -20111556.333 10 0 60335 85500.00000 0 6022374.133 16659357.489 -18355273.061 10 0 60336 0.00000 0 5829107.206 18788005.941 -16242530.227 10 0 60336 900.00000 0 5809609.253 20646168.814 -13814388.449 10 0 60336 1800.00000 0 5925449.960 22185433.608 -11118022.982 10 0 60336 2700.00000 0 6130468.982 23367779.661 -8205806.337 10 0 60336 3600.00000 0 6372936.493 24167025.704 -5134291.201 10 0 60336 4500.00000 0 6597956.422 24569798.320 -1963112.347 10 0 60336 5400.00000 0 6750010.369 24575981.243 1246170.916 10 0 60336 6300.00000 0 6775534.271 24198627.333 4431269.212 10 0 60336 7200.00000 0 6625418.525 23463337.562 7530371.093 10 0 60336 8100.00000 0 6257325.525 22407133.606 10483341.016 10 0 60336 9000.00000 0 5637726.281 21076871.824 13232884.035 10 0 60336 9900.00000 0 4743569.685 19527265.457 15725654.604 10 0 60336 10800.00000 0 3563513.382 17818598.162 17913288.228 10 0 60336 11700.00000 0 2098663.637 16014224.612 19753336.267 10 0 60336 12600.00000 0 362792.105 14177962.649 21210086.178 10 0 60336 13500.00000 0 -1617980.774 12371485.672 22255251.803 10 0 60336 14400.00000 0 -3806023.918 10651823.755 22868520.792 10 0 60336 15300.00000 0 -6153521.696 9069077.274 23037948.895 10 0 60336 16200.00000 0 -8604234.226 7664437.859 22760193.723 10 0 60336 17100.00000 0 -11095620.050 6468598.643 22040583.422 10 0 60336 18000.00000 0 -13561234.194 5500619.605 20893018.676 10 0 60336 18900.00000 0 -15933303.043 4767294.876 19339709.466 10 0 60336 19800.00000 0 -18145369.826 4263048.014 17410751.029 10 0 60336 20700.00000 0 -20134901.217 3970359.237 15143546.447 10 0 60336 21600.00000 0 -21845746.779 3860706.341 12582086.314 10 0 60336 22500.00000 0 -23230348.749 3895979.382 9776098.722 10 0 60336 23400.00000 0 -24251609.692 4030309.174 6780085.595 10 0 60336 24300.00000 0 -24884339.617 4212232.001 3652263.808 10 0 60336 25200.00000 0 -25116221.594 4387098.482 453431.666 10 0 60336 26100.00000 0 -24948255.069 4499623.989 -2754216.868 10 0 60336 27000.00000 0 -24394658.064 4496471.761 -5908306.615 10 0 60336 27900.00000 0 -23482232.366 4328758.333 -8947499.976 10 0 60336 28800.00000 0 -22249218.512 3954374.085 -11812695.545 10 0 60336 29700.00000 0 -20743689.078 3340019.550 -14448182.497 10 0 60336 30600.00000 0 -19021548.210 2462870.211 -16802727.709 10 0 60336 31500.00000 0 -17144221.958 1311798.362 -18830574.020 10 0 60336 32400.00000 0 -15176136.790 -111900.551 -20492330.079 10 0 60336 33300.00000 0 -13182092.366 -1794308.693 -21755734.591 10 0 60336 34200.00000 0 -11224638.775 -3709222.976 -22596280.386 10 0 60336 35100.00000 0 -9361567.888 -5819015.302 -22997686.629 10 0 60336 36000.00000 0 -7643623.319 -8075980.683 -22952210.575 10 0 60336 36900.00000 0 -6112524.069 -10424117.603 -22460793.281 10 0 60336 37800.00000 0 -4799383.498 -12801266.994 -21533036.936 10 0 60336 38700.00000 0 -3723588.534 -15141521.242 -20187014.550 10 0 60336 39600.00000 0 -2892184.715 -17377803.374 -18448915.882 10 0 60336 40500.00000 0 -2299791.413 -19444509.439 -16352536.553 10 0 60336 41400.00000 0 -1929049.379 -21280104.440 -13938620.137 10 0 60336 42300.00000 0 -1751580.507 -22829563.949 -11254065.950 10 0 60336 43200.00000 0 -1729418.228 -24046559.912 -8351017.724 10 0 60336 44100.00000 0 -1816847.231 -24895299.729 -5285850.786 10 0 60336 45000.00000 0 -1962574.041 -25351942.080 -2118077.391 10 0 60336 45900.00000 0 -2112136.046 -25405530.618 1090808.506 10 0 60336 46800.00000 0 -2210446.635 -25058406.844 4278524.495 10 0 60336 47700.00000 0 -2204368.340 -24326085.202 7383207.639 10 0 60336 48600.00000 0 -2045204.786 -23236596.009 10344613.525 10 0 60336 49500.00000 0 -1691005.763 -21829324.036 13105283.114 10 0 60336 50400.00000 0 -1108587.618 -20153391.600 15611654.779 10 0 60336 51300.00000 0 -275183.252 -18265653.947 17815100.155 10 0 60336 52200.00000 0 820348.480 -16228390.719 19672864.053 10 0 60336 53100.00000 0 2176805.612 -14106789.764 21148890.625 10 0 60336 54000.00000 0 3780449.320 -11966327.965 22214520.244 10 0 60336 54900.00000 0 5605342.897 -9870157.814 22849044.099 10 0 60336 55800.00000 0 7614210.629 -7876608.046 23040106.108 10 0 60336 56700.00000 0 9759782.143 -6036901.764 22783944.576 10 0 60336 57600.00000 0 11986567.654 -4393186.361 22085468.927 10 0 60336 58500.00000 0 14232991.451 -2976956.632 20958169.779 10 0 60336 59400.00000 0 16433796.029 -1807936.122 19423863.624 10 0 60336 60300.00000 0 18522617.674 -893462.763 17512276.405 10 0 60336 61200.00000 0 20434626.869 -228403.926 15260473.299 10 0 60336 62100.00000 0 22109123.757 204396.150 12712144.988 10 0 60336 63000.00000 0 23491980.380 433155.817 9916763.545 10 0 60336 63900.00000 0 24537827.379 495723.336 6928623.827 10 0 60336 64800.00000 0 25211893.194 437733.002 3805788.715 10 0 60336 65700.00000 0 25491418.168 310428.591 608958.691 10 0 60336 66600.00000 0 25366583.645 168246.896 -2599711.944 10 0 60336 67500.00000 0 24840916.548 66264.506 -5757828.662 10 0 60336 68400.00000 0 23931152.073 57616.905 -8803975.835 10 0 60336 69300.00000 0 22666560.070 191000.252 -11678916.842 10 0 60336 70200.00000 0 21087763.422 508362.712 -14326751.124 10 0 60336 71100.00000 0 19245098.200 1042884.089 -16696005.036 10 0 60336 72000.00000 0 17196584.673 1817330.228 -18740634.875 10 0 60336 72900.00000 0 15005594.586 2842852.605 -20420922.391 10 0 60336 73800.00000 0 12738312.600 4118284.648 -21704245.478 10 0 60336 74700.00000 0 10461098.261 5629965.196 -22565709.322 10 0 60336 75600.00000 0 8237858.649 7352097.301 -22988626.196 10 0 60336 76500.00000 0 6127541.053 9247628.034 -22964835.141 10 0 60336 77400.00000 0 4181849.728 11269613.113 -22494855.792 10 0 60336 78300.00000 0 2443281.069 13363009.891 -21587873.880 10 0 60336 79200.00000 0 943558.074 15466824.378 -20261558.983 10 0 60336 80100.00000 0 -297471.905 17516523.132 -18541718.269 10 0 60336 81000.00000 0 -1272431.479 19446609.788 -16461793.012 10 0 60336 81900.00000 0 -1986476.328 21193259.061 -14062207.563 10 0 60336 82800.00000 0 -2456825.937 22696898.497 -11389583.315 10 0 60336 83700.00000 0 -2711783.103 23904630.349 -8495832.775 10 0 60336 84600.00000 0 -2789284.798 24772392.527 -5437151.220 10 0 60336 85500.00000 0 -2735046.537 25266768.304 -2272925.498 10 0 60337 0.00000 0 -2600379.532 25366369.195 935418.494 10 0 60337 900.00000 0 -2439773.494 25062733.148 4125608.932 10 0 60337 1800.00000 0 -2308348.049 24360700.488 7235734.109 10 0 60337 2700.00000 0 -2259280.722 23278252.136 10205443.630 10 0 60337 3600.00000 0 -2341320.777 21845816.697 12977117.094 10 0 60337 4500.00000 0 -2596494.224 20105075.586 15496979.300 10 0 60337 5400.00000 0 -3058097.260 18107316.043 17716140.283 10 0 60337 6300.00000 0 -3749063.186 15911400.666 19591540.309 10 0 60337 7200.00000 0 -4680772.148 13581437.942 21086781.926 10 0 60337 8100.00000 0 -5852354.499 11184250.422 22172833.438 10 0 60337 9000.00000 0 -7250517.960 8786745.418 22828590.633 10 0 60337 9900.00000 0 -8849906.958 6453297.014 23041286.269 10 0 60337 10800.00000 0 -10613980.382 4243247.486 22806739.596 10 0 60337 11700.00000 0 -12496372.402 2208631.259 22129441.119 10 0 60337 12600.00000 0 -14442680.898 392215.270 21022470.689 10 0 60337 13500.00000 0 -16392610.046 -1174063.463 19507250.104 10 0 60337 14400.00000 0 -18282378.747 -2470198.737 17613134.307 10 0 60337 15300.00000 0 -20047295.094 -3488709.233 15376848.404 10 0 60337 16200.00000 0 -21624389.790 -4234701.620 12841780.593 10 0 60337 17100.00000 0 -22954998.590 -4725400.667 10057144.030 10 0 60337 18000.00000 0 -23987185.421 -4989166.737 7077023.379 10 0 60337 18900.00000 0 -24677904.214 -5064042.681 3959324.269 10 0 60337 19800.00000 0 -24994808.099 -4995892.120 764646.057 10 0 60337 20700.00000 0 -24917629.220 -4836208.541 -2444899.889 10 0 60337 21600.00000 0 -24439070.445 -4639688.747 -5606902.883 10 0 60337 22500.00000 0 -23565170.786 -4461674.304 -8659872.325 10 0 60337 23400.00000 0 -22315128.624 -4355570.345 -11544439.282 10 0 60337 24300.00000 0 -20720589.834 -4370352.051 -14204516.132 10 0 60337 25200.00000 0 -18824430.490 -4548265.326 -16588391.113 10 0 60337 26100.00000 0 -16679085.238 -4922819.878 -18649736.022 10 0 60337 27000.00000 0 -14344491.439 -5517160.313 -20348507.308 10 0 60337 27900.00000 0 -11885735.228 -6342884.768 -21651723.135 10 0 60337 28800.00000 0 -9370497.898 -7399361.485 -22534101.555 10 0 60337 29700.00000 0 -6866409.123 -8673572.711 -22978547.875 10 0 60337 30600.00000 0 -4438417.068 -10140493.005 -22976482.268 10 0 60337 31500.00000 0 -2146284.447 -11763986.597 -22528001.786 10 0 60337 32400.00000 0 -42314.057 -13498186.668 -21641874.091 10 0 60337 33300.00000 0 1830602.535 -15289299.278 -20335363.355 10 0 60337 34200.00000 0 3440533.055 -17077756.845 -18633891.898 10 0 60337 35100.00000 0 4767586.175 -18800631.493 -16570544.185 10 0 60337 36000.00000 0 5804483.139 -20394207.614 -14185422.734 10 0 60337 36900.00000 0 6556597.000 -21796606.233 -11524868.333 10 0 60337 37800.00000 0 7041459.377 -22950351.480 -8640559.551 10 0 60337 38700.00000 0 7287756.951 -23804771.776 -5588508.918 10 0 60337 39600.00000 0 7333861.186 -24318135.102 -2427975.247 10 0 60337 40500.00000 0 7225954.424 -24459428.811 779686.744 10 0 60337 41400.00000 0 7015832.334 -24209709.253 3972217.072 10 0 60337 42300.00000 0 6758476.291 -23562964.490 7087658.104 10 0 60337 43200.00000 0 6509498.816 -22526453.790 10065555.573 10 0 60337 44100.00000 0 6322570.455 -21120509.477 12848129.626 10 0 60337 45000.00000 0 6246937.111 -19377809.207 15381393.193 10 0 60337 45900.00000 0 6325132.894 -17342148.823 17616196.158 10 0 60337 46800.00000 0 6590985.226 -15066766.655 19509175.421 10 0 60337 47700.00000 0 7067996.579 -12612288.709 21023592.808 10 0 60337 48600.00000 0 7768171.385 -10044379.808 22130045.100 10 0 60337 49500.00000 0 8691338.022 -7431197.688 22807032.909 10 0 60337 50400.00000 0 9824995.134 -4840755.202 23041377.731 10 0 60337 51300.00000 0 11144689.706 -2338299.345 22828479.366 10 0 60337 52200.00000 0 12614912.156 16184.886 22172408.715 10 0 60337 53100.00000 0 14190472.192 2170242.963 21085833.955 10 0 60337 54000.00000 0 15818299.018 4080898.171 19589781.060 10 0 60337 54900.00000 0 17439591.670 5716197.589 17713232.671 10 0 60337 55800.00000 0 18992230.343 7056293.022 15492572.335 10 0 60337 56700.00000 0 20413348.330 8094012.434 12970884.106 10 0 60337 57600.00000 0 21641957.087 8834898.649 10197120.388 10 0 60337 58500.00000 0 22621514.225 9296714.364 7225153.628 10 0 60337 59400.00000 0 23302326.235 9508434.934 4112729.998 10 0 60337 60300.00000 0 23643684.337 9508772.077 920345.365 10 0 60337 61200.00000 0 23615642.800 9344291.594 -2289934.324 10 0 60337 62100.00000 0 23200363.989 9067205.454 -5455684.756 10 0 60337 63000.00000 0 22392972.645 8732932.582 -8515342.876 10 0 60337 63900.00000 0 21201882.587 8397532.521 -11409409.839 10 0 60337 64800.00000 0 19648581.446 8115121.579 -14081613.199 10 0 60337 65700.00000 0 17766881.919 7935381.708 -16480005.084 10 0 60337 66600.00000 0 15601670.642 7901268.334 -18557974.562 10 0 60337 67500.00000 0 13207206.875 8047014.732 -20275154.319 10 0 60337 68400.00000 0 10645042.046 8396517.775 -21598204.092 10 0 60337 69300.00000 0 7981646.970 8962173.618 -22501455.886 10 0 60337 70200.00000 0 5285845.541 9744212.714 -22967408.895 10 0 60337 71100.00000 0 2626161.514 10730562.428 -22987065.023 10 0 60337 72000.00000 0 68188.380 11897243.296 -22560099.024 10 0 60337 72900.00000 0 -2327908.948 13209282.522 -21694860.429 10 0 60337 73800.00000 0 -4509657.606 14622106.650 -20408207.549 10 0 60337 74700.00000 0 -6434212.294 16083355.258 -18725176.987 10 0 60337 75600.00000 0 -8069883.551 17535039.876 -16678495.124 10 0 60337 76500.00000 0 -9397196.471 18915957.865 -14307940.999 10 0 60337 77400.00000 0 -10409437.176 20164260.154 -11659572.812 10 0 60337 78300.00000 0 -11112665.703 21220065.275 -8784832.935 10 0 60337 79200.00000 0 -11525196.302 22028009.997 -5739548.681 10 0 60337 80100.00000 0 -11676568.368 22539629.413 -2582848.194 10 0 60337 81000.00000 0 -11606052.570 22715466.401 623987.427 10 0 60337 81900.00000 0 -11360756.226 22526821.632 3818713.407 10 0 60337 82800.00000 0 -10993408.725 21957070.363 6939328.693 10 0 60337 83700.00000 0 -10559921.164 21002490.405 9925277.894 10 0 60337 84600.00000 0 -10116823.748 19672566.142 12718624.381 10 0 60337 85500.00000 0 -9718689.456 17989755.414 15265171.757 10 0 60338 0.00000 0 -9415652.945 15988728.701 17515511.955 10 0 60338 900.00000 0 -9251129.292 13715110.682 19425981.088 10 0 60338 1800.00000 0 -9259829.190 11223778.742 20959501.971 10 0 60338 2700.00000 0 -9466153.739 8576785.020 22086301.512 10 0 60338 3600.00000 0 -9883037.031 5840990.175 22784486.449 10 0 60338 4500.00000 0 -10511285.362 3085505.342 23040467.954 10 0 60338 5400.00000 0 -11339441.418 379047.684 22849226.880 10 0 60338 6300.00000 0 -12344179.903 -2212681.646 22214414.578 10 0 60338 7200.00000 0 -13491218.877 -4629489.198 21148287.102 10 0 60338 8100.00000 0 -14736709.578 -6818948.012 19671473.656 10 0 60338 9000.00000 0 -16029047.435 -8738330.406 17812583.122 10 0 60338 9900.00000 0 -17311029.103 -10356135.034 15607655.565 10 0 60338 10800.00000 0 -18522265.702 -11653145.231 13099468.559 10 0 60338 11700.00000 0 -19601751.261 -12622975.031 10336711.058 10 0 60338 12600.00000 0 -20490478.476 -13272080.605 7373040.326 10 0 60338 13500.00000 0 -21133991.465 -13619237.243 4266039.941 10 0 60338 14400.00000 0 -21484767.493 -13694504.552 1076099.020 10 0 60338 15300.00000 0 -21504326.519 -13537724.190 -2134765.194 10 0 60338 16200.00000 0 -21164978.678 -13196614.325 -5304118.039 10 0 60338 17100.00000 0 -20451135.023 -12724542.218 -8370327.210 10 0 60338 18000.00000 0 -19360125.262 -12178070.007 -11273767.053 10 0 60338 18900.00000 0 -17902487.111 -11614378.428 -13957983.225 10 0 60338 19800.00000 0 -16101714.280 -11088678.281 -16370794.443 10 0 60338 20700.00000 0 -13993473.014 -10651719.875 -18465309.416 10 0 60338 21600.00000 0 -11624319.521 -10347506.281 -20200839.016 10 0 60338 22500.00000 0 -9049971.571 -10211307.392 -21543685.999 10 0 60338 23400.00000 0 -6333206.176 -10268058.839 -22467797.200 10 0 60338 24300.00000 0 -3541470.712 -10531213.337 -22955265.965 10 0 60338 25200.00000 0 -744306.602 -11002092.877 -22996675.596 10 0 60338 26100.00000 0 1989307.674 -11669768.908 -22591277.674 10 0 60338 27000.00000 0 4593584.409 -12511475.534 -21747002.233 10 0 60338 27900.00000 0 7008416.915 -13493538.277 -20480299.952 10 0 60338 28800.00000 0 9181629.540 -14572779.394 -18815819.611 10 0 60338 29700.00000 0 11070895.006 -15698340.737 -16785927.132 10 0 60338 30600.00000 0 12645240.469 -16813847.626 -14430075.456 10 0 60338 31500.00000 0 13886080.806 -17859822.860 -11794037.387 10 0 60338 32400.00000 0 14787737.418 -18776249.403 -8929016.135 10 0 60338 33300.00000 0 15357422.253 -19505173.973 -5890650.702 10 0 60338 34200.00000 0 15614689.097 -19993241.875 -2737935.417 10 0 60338 35100.00000 0 15590376.495 -20194056.284 467925.384 10 0 60338 36000.00000 0 15325087.947 -20070262.400 3664705.195 10 0 60338 36900.00000 0 14867274.337 -19595268.485 6790362.435 10 0 60338 37800.00000 0 14271000.268 -18754530.958 9784243.241 10 0 60338 38700.00000 0 13593489.061 -17546349.050 12588256.543 10 0 60338 39600.00000 0 12892550.334 -15982135.079 15147998.602 10 0 60338 40500.00000 0 12223998.848 -14086148.307 17413805.355 10 0 60338 41400.00000 0 11639173.418 -11894702.738 19341712.493 10 0 60338 42300.00000 0 11182660.342 -9454881.067 20894305.007 10 0 60338 43200.00000 0 10890317.040 -6822807.447 22041440.261 10 0 60338 44100.00000 0 10787678.956 -4061549.931 22760831.060 10 0 60338 45000.00000 0 10888816.661 -1238738.718 23038477.796 10 0 60338 45900.00000 0 11195691.311 1576001.953 22868941.582 10 0 60338 46800.00000 0 11698035.858 4313702.810 22255453.110 10 0 60338 47700.00000 0 12373767.449 6908670.482 21209854.936 10 0 60338 48600.00000 0 13189914.367 9300972.548 19752377.895 10 0 60338 49500.00000 0 14104019.253 11438684.294 17911255.330 10 0 60338 50400.00000 0 15065960.365 13279804.405 15722181.888 10 0 60338 51300.00000 0 16020114.872 14793760.427 13227626.586 10 0 60338 52200.00000 0 16907773.581 15962441.687 10476012.737 10 0 60338 53100.00000 0 17669705.532 16780716.935 7520780.131 10 0 60338 54000.00000 0 18248764.211 17256415.514 4419347.350 10 0 60338 54900.00000 0 18592425.020 17409773.374 1231994.318 10 0 60338 55800.00000 0 18655146.167 17272367.827 -1979312.895 10 0 60338 56700.00000 0 18400452.404 16885586.658 -5152131.703 10 0 60338 57600.00000 0 17802652.559 16298696.925 -8224762.866 10 0 60338 58500.00000 0 16848117.264 15566595.883 -11137456.062 10 0 60338 59400.00000 0 15536061.896 14747339.892 -13833576.977 10 0 60338 60300.00000 0 13878800.711 13899556.546 -16260712.597 10 0 60338 61200.00000 0 11901460.563 13079850.041 -18371692.707 10 0 60338 62100.00000 0 9641165.452 12340309.915 -20125507.574 10 0 60338 63000.00000 0 7145725.364 11726228.603 -21488103.972 10 0 60338 63900.00000 0 4471883.708 11274124.191 -22433044.369 10 0 60338 64800.00000 0 1683195.994 11010151.606 -22942016.875 10 0 60338 65700.00000 0 -1152372.386 10948968.870 -23005186.587 10 0 60338 66600.00000 0 -3965029.753 11093105.805 -22621382.017 10 0 60338 67500.00000 0 -6685816.331 11432861.270 -21798113.492 10 0 60338 68400.00000 0 -9249227.256 11946732.899 -20551423.472 10 0 60338 69300.00000 0 -11595692.195 12602360.848 -18905571.935 10 0 60338 70200.00000 0 -13673809.409 13357945.607 -16892562.975 10 0 60338 71100.00000 0 -15442242.385 14164079.985 -14551521.730 10 0 60338 72000.00000 0 -16871201.081 14965918.009 -11927933.618 10 0 60338 72900.00000 0 -17943447.254 15705589.295 -9072760.492 10 0 60338 73800.00000 0 -18654783.049 16324757.043 -6041450.709 10 0 60338 74700.00000 0 -19014003.673 16767211.708 -2892862.356 10 0 60338 75600.00000 0 -19042317.325 16981390.800 311879.474 10 0 60338 76500.00000 0 -18772257.884 16922718.311 3510569.047 10 0 60338 77400.00000 0 -18246137.083 16555664.811 6641126.773 10 0 60338 78300.00000 0 -17514102.157 15855440.979 9642802.831 10 0 60338 79200.00000 0 -16631881.413 14809252.719 12457354.206 10 0 60338 80100.00000 0 -15658313.101 13417064.466 15030172.241 10 0 60338 81000.00000 0 -14652761.914 11691837.829 17311339.013 10 0 60338 81900.00000 0 -13672531.857 9659234.680 19256592.341 10 0 60338 82800.00000 0 -12770384.217 7356796.095 20828181.096 10 0 60338 83700.00000 0 -11992264.713 4832630.306 21995594.731 10 0 60338 84600.00000 0 -11375335.016 2143663.106 22736153.405 10 0 60338 85500.00000 0 -10946390.991 -646477.697 23035447.649 99